Regional Weather Roundup
Issued by NWS

Home | Current Version | Previous Version | Text Only | Print | Product List | Glossary Off
Versions: 1 2 3 4 5 6 7 8 9 10 11 12 13 14 15 16 17 18 19 20 21 22 23 24 25 26 27 28 29 30 31 32 33 34 35 36 37 38 39 40 41 42 43 44 45 46 47 48 49 50

000
ASUS43 KLOT 300608
RWRIL

ILLINOIS REGIONAL WEATHER ROUNDUP
NATIONAL WEATHER SERVICE CHICAGO/ROMEOVILLE IL
100 AM CDT THU MAR 30 2017

NOTE: "FAIR" INDICATES FEW OR NO CLOUDS BELOW 12,000 FEET WITH NO
SIGNIFICANT WEATHER AND/OR OBSTRUCTIONS TO VISIBILITY.

* THESE STATIONS ARE NOT UNDER NWS QUALITY CONTROL. THEY ALSO MAY NOT
  REPORT WEATHER SUCH AS PRECIPITATION OR FOG.

ILZ001-002-007-009-015-016-024-300700-
NORTHWEST ILLINOIS

CITY           SKY/WX    TMP DP  RH WIND       PRES   REMARKS
MOLINE         TSTM      44  40  85 E16       29.87R FOG
6HR MIN TEMP:  43; 6HR MAX TEMP:  46; 6HR PCP:  0.20;

STERLING*      RAIN      43  40  89 E26G33    29.87F
SAVANNA*       CLOUDY    42  39  89 E16G24    29.92R
$$

ILZ003-004-008-010-011-017-018-300700-
NORTH CENTRAL ILLINOIS

CITY           SKY/WX    TMP DP  RH WIND       PRES   REMARKS
ROCKFORD       LGT RAIN  43  39  86 E15       29.96F
6HR MIN TEMP:  42; 6HR MAX TEMP:  44; 6HR PCP:  0.08;

FREEPORT*      CLOUDY    40  39  93 E22G30    29.95F
ROCHELLE*      TSTM      42  39  88 E20G28    29.92F
DE KALB*       TSTM      43  39  85 E24G31    29.93F
PERU*          TSTM      43  40  89 E18G25    29.89F
$$

ILZ005-006-012>014-019>023-300700-
NORTHEAST ILLINOIS

CITY           SKY/WX    TMP DP  RH WIND       PRES   REMARKS
CHICAGO-OHARE  LGT RAIN  43  38  82 NE18      29.97F
6HR MIN TEMP:  43; 6HR MAX TEMP:  46; 6HR PCP:  0.10;

CHICAGO-MIDWAY RAIN      44  40  85 NE17G24   29.99F FOG
6HR MIN TEMP:  44; 6HR MAX TEMP:  47; 6HR PCP:  0.15;

AURORA         CLOUDY    45  39  79 E23G29    29.92F
6HR MIN TEMP:  44; 6HR MAX TEMP:  46; 6HR PCP:  0.09;

LANSING*       CLOUDY    47  38  72 E10       29.95F
JOLIET*        TSTM      45  42  89 E14G20    29.92F
WAUKEGAN       CLOUDY    40  37  89 E20G28    30.00F
6HR MIN TEMP:  39; 6HR MAX TEMP:  42; 6HR PCP:  0.07;

DUPAGE AIRPORT LGT RAIN  43  41  93 NE17G26   29.94F
6HR MIN TEMP:  43; 6HR MAX TEMP:  44; 6HR PCP:  0.10;

KANKAKEE*      CLOUDY    45  39  82 E18       29.89F THUNDER
WHEELING       CLOUDY    41  39  93 NE14G21   29.99F
6HR MIN TEMP:  41; 6HR MAX TEMP:  44; 6HR PCP:  0.08;

MORRIS*        CLOUDY    44  39  84 E12G17    29.91S
ROMEOVILLE*    TSTM      42  42  99 E17       29.93F
NORTHERLY ISL    N/A     41  38  89 NE22        N/A
$$

LMZ740>746-300700-
SOUTHERN LAKE MICHIGAN

STATION/POSITION SKY/WX   TEMP    WIND        PRES    VSBY  WAVE
                          AIR SEA DIR/SP/G                  HT/PER
                          (F)     (DEG/KT/KT) (MB)    (MI)  (FT/S)
HARRISON CRIB              41      60/ 26/ 28   N/A
BURNHAM HARBOR             41      40/ 15/ 19   N/A
CALUMET HARBOR             42      30/ 14/ 19 1013.9F
BURNS HARBOR               48      90/ 17/ 23 1014.6F
MICHIGAN CITY              47      60/ 20/ 22   N/A
$$

ILZ025>027-034>036-040-047-049-050-058-095>099-300700-
WEST-CENTRAL ILLINOIS

CITY           SKY/WX    TMP DP  RH WIND       PRES   REMARKS
QUINCY         TSTM      54  52  93 E17G24    29.69F FOG
GALESBURG*     RAIN      46  44  93 E10       29.82R
MACOMB*        LGT RAIN  48  47  97 E14       29.78F
JACKSONVILLE*  CLOUDY    51  49  93 E17       29.71F
PITTSFIELD*    CLOUDY    53  51  95 E10       29.72F
$$

ILZ028>032-037-038-041>044-048-051>054-059>061-300700-
CENTRAL ILLINOIS

CITY           SKY/WX    TMP DP  RH WIND       PRES   REMARKS
PONTIAC        TSTM      45  44  97 E18G28    29.87F
BLOOMINGTON    LGT RAIN  48  46  93 NE13      29.83F
DECATUR        CLOUDY    53  47  79 E14       29.78F
PEORIA         TSTM      47  46  97 NE8G26    29.84R
6HR MIN TEMP:  47; 6HR MAX TEMP:  50; 6HR PCP:  0.51;

LACON*         TSTM      45  43  93 E20G26    29.84F
LINCOLN*       LGT RAIN  54  50  87 E9        29.79F
SPRINGFIELD    LGT RAIN  54  50  86 E12       29.74F
6HR MIN TEMP:  54; 6HR MAX TEMP:  56; 6HR PCP:  0.24;

TAYLORVILLE    MOCLDY    55  50  82 E13       29.74F
$$

ILZ033-039-045-046-055>057-062-063-300700-
EAST-CENTRAL ILLINOIS

CITY           SKY/WX    TMP DP  RH WIND       PRES   REMARKS
CHAMPAIGN      PTCLDY    53  45  74 E15       29.81F
RANTOUL*       CLOUDY    53  47  81 E15       29.82F
MATTOON        CLOUDY    55  49  80 SE17G23   29.77F
PARIS*         PTCLDY    55  47  77 E12G20    29.83F
$$

ILZ079-100>102-300700-
SOUTHWEST ILLINOIS

CITY           SKY/WX    TMP DP  RH WIND       PRES   REMARKS
ALTON          RAIN      59  53  79 E10G17    29.71F
BELLEVILLE     CLOUDY    62  56  82 E13       29.68F
CAHOKIA*       LGT RAIN  62  54  74 SE10      29.67F
SPARTA*        CLOUDY    62  55  77 SE10G18   29.72S
$$

ILZ064>066-069>071-074>076-080>082-084>086-088>090-092>094-300700-
SOUTH-CENTRAL ILLINOIS

CITY           SKY/WX    TMP DP  RH WIND       PRES   REMARKS
CARBONDALE     MOCLDY    62  56  80 E6        29.74F
6HR MIN TEMP:  61; 6HR MAX TEMP:  68;

CAIRO*         PTCLDY    70  58  65 S12       29.75S
EFFINGHAM*     MOCLDY    57  51  80 E12       29.79F
MARION         CLOUDY    64  59  82 E9        29.76S
MT. VERNON     CLOUDY    61  54  77 E10G17    29.77F
CENTRALIA*     CLOUDY    62  55  76 SE13G22   29.73F
SALEM*         CLOUDY    63  52  68 SE12G18   29.75F
METROPOLIS*    MOCLDY    66  57  74 CALM      29.77F
$$

ILZ067-068-072-073-078-083-087-091-300700-
SOUTHEAST ILLINOIS

CITY           SKY/WX    TMP DP  RH WIND       PRES   REMARKS
LAWRENCEVILLE  PTCLDY    55  50  83 E9        29.83F
FLORA*         PTCLDY    60  53  76 SE14      29.78F
FAIRFIELD*     CLOUDY    60  53  76 E8        29.76F
HARRISBURG*    CLOUDY    61  56  84 SE10      29.79S
ROBINSON*      PTCLDY    56  48  76 SE13      29.84F
CARMI*         PTCLDY    60  54  80 SE15      29.79F
$$

ABBREVIATIONS USED IN REMARKS
   TC - TEMPERATURE IN CELSIUS
  WCI - WIND CHILL INDEX
   HX - HEAT INDEX
  VSB - VISIBILITY
$$




USA.gov is the U.S. government's official web portal to all federal, state and local government web resources and services.